Regional Weather Roundup
Issued by NWS

Home | Current Version | Previous Version | Text Only | Print | Product List | Glossary On
Versions: 1 2 3 4 5 6 7 8 9 10 11 12 13 14 15 16 17 18 19 20 21 22 23 24 25 26 27 28 29 30 31 32 33 34 35 36 37 38 39 40 41 42 43 44 45 46 47 48 49 50
000
ASUS43 KTOP 050808
RWRKS

WEATHER ROUNDUP FOR KANSAS
NATIONAL WEATHER SERVICE GOODLAND KS
300 AM CDT THU MAY 05 2016

NOTE:  "FAIR" INDICATES FEW OR NO CLOUDS BELOW 12,000 FEET WITH NO
SIGNIFICANT WEATHER AND/OR OBSTRUCTIONS TO VISIBILITY.

KSZ001>006-013>018-027>032-041>047-050900-
NORTHWEST KANSAS

CITY           SKY/WX    TMP DP  RH WIND       PRES   REMARKS
GOODLAND       CLEAR     56  42  59 S10       30.11F
HAYS           CLEAR     45  37  76 NW3       30.08F
HILL CITY      CLEAR     45  41  86 CALM      30.10S
RUSSELL        CLEAR     51  42  71 W6        30.07S
$$

KSZ061>065-074>080-084>089-050900-
SOUTHWEST KANSAS

CITY           SKY/WX    TMP DP  RH WIND       PRES   REMARKS
DODGE CITY     CLEAR     49  43  80 SW8       30.11S
ELKHART          N/A     59  39  47 S9          N/A
GARDEN CITY    CLEAR     52  43  71 S6        30.11S
GREAT BEND     CLEAR     45  37  76 CALM      30.08F
LIBERAL        CLEAR     54  43  66 CALM      30.12S
PRATT          CLEAR     44  39  84 W3        30.09S
$$

KSZ066>073-081>083-090>101-050900-
SOUTHEAST KANSAS

CITY           SKY/WX    TMP DP  RH WIND       PRES   REMARKS
CHANUTE        CLEAR     46  41  82 NW3       30.03S
COFFEYVILLE    CLEAR     47  42  83 CALM      30.03S
HUTCHINSON     CLEAR     43  39  86 NW7       30.06S
MEDICINE LODGE   N/A     46  43  89 N5        30.07S
NEWTON         CLEAR     48  34  57 NW3       30.07S
PARSONS        CLEAR     44  42  93 CALM      30.04S
WICHITA INTL   CLEAR     50  41  71 N6        30.04F
WICHITA JABRA  CLEAR     51  39  63 NW7       30.05S
WICHITA MCCONL CLEAR     52  40  65 N6        30.05S
WINFIELD       CLEAR     46  40  79 CALM      30.32F
$$

KSZ007>012-019>026-033>040-048>060-102>105-050900-
NORTHEAST KANSAS

CITY           SKY/WX    TMP DP  RH WIND       PRES   REMARKS
CONCORDIA      CLEAR     47  36  65 W6        30.06S
EMPORIA        CLEAR     49  41  74 W3        30.04S
LAWRENCE       CLEAR     42  40  92 NW6       30.01F
MANHATTAN      CLEAR     42  39  89 CALM      30.05S
MARYSVILLE     CLEAR     45  41  87 NW3       30.04S
OLATHE IND     CLEAR     49  39  68 W5        30.02S
OLATHE EXE     CLEAR     51  39  63 NW6       30.01S
SALINA         CLEAR     47  41  80 CALM      30.06S
TOPEKA BILLARD CLEAR     47  43  86 CALM      30.02F
TOPEKA FORBES  CLEAR     47  39  74 CALM      30.02F
$$



USA.gov is the U.S. government's official web portal to all federal, state and local government web resources and services.